• In Belarus
  • List of Countries
  • For 7 days
  • Water Temperature
  • Satellite Maps
  • Weather Map
  • Weather Widgets
  • user-avatar
    Login

    Hourly Weather Kapan

    Today, 20 July, Saturday

    Time Temperature Precipitation Wind Pressure Humidity
    00:00 +23°C° 0 mm 2 mps 684 mmHg 69%
    01:00 +23°C° 0 mm 2 mps 684 mmHg 68%
    02:00 +23°C° 0 mm 2 mps 684 mmHg 67%
    03:00 +22°C° 0 mm 1 mps 683 mmHg 68%
    04:00 +23°C° 0 mm 1 mps 684 mmHg 67%
    05:00 +24°C° 0 mm 1 mps 685 mmHg 66%
    06:00 +24°C° 0 mm 1 mps 685 mmHg 65%
    07:00 +25°C° 0 mm 2 mps 686 mmHg 61%
    08:00 +26°C° 0 mm 2 mps 686 mmHg 57%
    09:00 +27°C° 0 mm 3 mps 686 mmHg 52%
    10:00 +29°C° 0 mm 3 mps 686 mmHg 48%
    11:00 +30°C° 0 mm 3 mps 686 mmHg 43%
    12:00 +31°C° 0 mm 3 mps 686 mmHg 38%
    13:00 +33°C° 0 mm 4 mps 686 mmHg 36%
    14:00 +33°C° 0 mm 4 mps 685 mmHg 35%
    15:00 +34°C° 0 mm 4 mps 685 mmHg 33%
    16:00 +33°C° 0 mm 4 mps 685 mmHg 36%
    17:00 +32°C° 0 mm 4 mps 685 mmHg 40%
    18:00 +30°C° 0 mm 4 mps 685 mmHg 43%
    19:00 +28°C° 0 mm 3 mps 685 mmHg 50%
    20:00 +26°C° 0 mm 3 mps 685 mmHg 57%
    21:00 +24°C° 0 mm 2 mps 685 mmHg 63%
    22:00 +23°C° 0 mm 2 mps 685 mmHg 62%
    23:00 +23°C° 0 mm 2 mps 686 mmHg 61%

    Tomorrow, 21 July, Sunday

    Time Temperature Precipitation Wind Pressure Humidity
    00:00 +23°C° 0 mm 2 mps 686 mmHg 60%
    01:00 +23°C° 0 mm 2 mps 686 mmHg 59%
    02:00 +23°C° 0 mm 2 mps 686 mmHg 59%
    03:00 +23°C° 0 mm 2 mps 686 mmHg 58%
    04:00 +23°C° 0 mm 2 mps 686 mmHg 57%
    05:00 +24°C° 0 mm 1 mps 686 mmHg 57%
    06:00 +24°C° 0 mm 1 mps 686 mmHg 56%
    07:00 +26°C° 0 mm 2 mps 686 mmHg 52%
    08:00 +27°C° 0 mm 2 mps 686 mmHg 47%
    09:00 +29°C° 0 mm 2 mps 686 mmHg 42%
    10:00 +30°C° 0 mm 3 mps 686 mmHg 39%
    11:00 +33°C° 0 mm 3 mps 686 mmHg 36%
    12:00 +34°C° 0 mm 3 mps 686 mmHg 33%
    13:00 +35°C° 0 mm 3 mps 685 mmHg 31%
    14:00 +35°C° 0 mm 3 mps 685 mmHg 30%
    15:00 +36°C° 0 mm 3 mps 684 mmHg 29%
    16:00 +35°C° 0 mm 3 mps 684 mmHg 32%
    17:00 +34°C° 0 mm 3 mps 684 mmHg 35%
    18:00 +33°C° 0 mm 3 mps 684 mmHg 38%
    19:00 +30°C° 0 mm 2 mps 683 mmHg 42%
    20:00 +28°C° 0 mm 2 mps 683 mmHg 47%
    21:00 +26°C° 0 mm 1 mps 683 mmHg 51%
    22:00 +26°C° 0 mm 2 mps 683 mmHg 52%
    23:00 +26°C° 0 mm 2 mps 683 mmHg 52%

    Day after tomorrow, 22 July, Monday

    Time Temperature Precipitation Wind Pressure Humidity
    00:00 +26°C° 0 mm 2 mps 683 mmHg 53%
    01:00 +26°C° 0 mm 2 mps 683 mmHg 52%
    02:00 +26°C° 0 mm 1 mps 683 mmHg 51%
    03:00 +26°C° 0 mm 1 mps 683 mmHg 50%
    04:00 +26°C° 0 mm 1 mps 683 mmHg 49%
    05:00 +27°C° 0 mm 1 mps 683 mmHg 49%
    06:00 +27°C° 0 mm 1 mps 683 mmHg 48%
    07:00 +29°C° 0 mm 1 mps 683 mmHg 44%
    08:00 +31°C° 0 mm 2 mps 683 mmHg 40%
    09:00 +34°C° 0 mm 2 mps 684 mmHg 35%
    10:00 +35°C° 0 mm 2 mps 683 mmHg 33%
    11:00 +36°C° 0 mm 3 mps 683 mmHg 31%
    12:00 +37°C° 0 mm 3 mps 683 mmHg 29%
    13:00 +37°C° 0 mm 4 mps 683 mmHg 29%
    14:00 +37°C° 0 mm 4 mps 682 mmHg 30%
    15:00 +37°C° 0 mm 4 mps 682 mmHg 31%
    16:00 +36°C° 0 mm 4 mps 682 mmHg 34%
    17:00 +35°C° 0 mm 4 mps 681 mmHg 38%
    18:00 +34°C° 0 mm 3 mps 681 mmHg 42%
    19:00 +31°C° 0 mm 3 mps 681 mmHg 48%
    20:00 +28°C° 0 mm 2 mps 681 mmHg 55%
    21:00 +26°C° 0 mm 1 mps 681 mmHg 61%
    22:00 +26°C° 0 mm 1 mps 681 mmHg 63%
    23:00 +25°C° 0 mm 1 mps 681 mmHg 65%

    23 July, Tuesday

    Time Temperature Precipitation Wind Pressure Humidity
    00:00 +25°C° 0 mm 1 mps 680 mmHg 67%
    01:00 +24°C° 0 mm 1 mps 680 mmHg 69%
    02:00 +24°C° 0 mm 1 mps 680 mmHg 71%
    03:00 +23°C° 0 mm 1 mps 680 mmHg 73%
    04:00 +24°C° 0 mm 1 mps 681 mmHg 71%
    05:00 +24°C° 0 mm 1 mps 681 mmHg 70%
    06:00 +25°C° 0 mm 1 mps 682 mmHg 68%
    07:00 +27°C° 0 mm 1 mps 682 mmHg 62%
    08:00 +28°C° 0 mm 2 mps 682 mmHg 56%
    09:00 +30°C° 0 mm 3 mps 682 mmHg 50%
    10:00 +31°C° 0 mm 3 mps 682 mmHg 46%
    11:00 +33°C° 0 mm 3 mps 682 mmHg 42%
    12:00 +34°C° 0 mm 4 mps 681 mmHg 38%
    13:00 +35°C° 0 mm 4 mps 681 mmHg 38%
    14:00 +35°C° 0 mm 4 mps 681 mmHg 37%
    15:00 +35°C° 0 mm 4 mps 680 mmHg 36%
    16:00 +34°C° 0 mm 4 mps 680 mmHg 41%
    17:00 +32°C° 0 mm 4 mps 680 mmHg 45%
    18:00 +30°C° 0 mm 3 mps 680 mmHg 49%
    19:00 +28°C° 0 mm 3 mps 680 mmHg 54%
    20:00 +27°C° 0 mm 2 mps 680 mmHg 59%
    21:00 +25°C° 0 mm 1 mps 680 mmHg 64%
    22:00 +24°C° 0 mm 1 mps 680 mmHg 65%
    23:00 +24°C° 0 mm 1 mps 680 mmHg 67%

    24 July, Wednesday

    Time Temperature Precipitation Wind Pressure Humidity
    00:00 +24°C° 0 mm 1 mps 680 mmHg 68%
    01:00 +24°C° 0 mm 1 mps 680 mmHg 68%
    02:00 +23°C° 0 mm 1 mps 680 mmHg 69%
    03:00 +23°C° 0 mm 1 mps 680 mmHg 70%
    04:00 +24°C° 0 mm 1 mps 681 mmHg 68%
    05:00 +22°C° 0 mm 0 mps 681 mmHg 66%
    06:00 +23°C° 0 mm 0 mps 681 mmHg 64%
    07:00 +27°C° 0 mm 1 mps 682 mmHg 59%
    08:00 +28°C° 0 mm 1 mps 682 mmHg 53%
    09:00 +30°C° 0 mm 2 mps 682 mmHg 47%
    10:00 +32°C° 0 mm 2 mps 682 mmHg 42%
    11:00 +34°C° 0 mm 2 mps 682 mmHg 38%
    12:00 +35°C° 0 mm 3 mps 682 mmHg 33%
    13:00 +36°C° 0 mm 3 mps 682 mmHg 30%
    14:00 +37°C° 0 mm 3 mps 681 mmHg 27%
    15:00 +38°C° 0 mm 3 mps 681 mmHg 25%
    16:00 +36°C° 0 mm 3 mps 681 mmHg 29%
    17:00 +35°C° 0 mm 3 mps 681 mmHg 33%
    18:00 +34°C° 0 mm 3 mps 681 mmHg 37%
    19:00 +31°C° 0 mm 2 mps 681 mmHg 42%
    20:00 +29°C° 0 mm 2 mps 681 mmHg 47%
    21:00 +27°C° 0 mm 1 mps 681 mmHg 52%
    22:00 +26°C° 0 mm 1 mps 681 mmHg 52%
    23:00 +26°C° 0 mm 1 mps 681 mmHg 51%

    25 July, Thursday

    Time Temperature Precipitation Wind Pressure Humidity
    00:00 +26°C° 0 mm 1 mps 681 mmHg 51%
    01:00 +25°C° 0 mm 1 mps 681 mmHg 50%
    02:00 +25°C° 0 mm 1 mps 681 mmHg 49%
    03:00 +25°C° 0 mm 1 mps 681 mmHg 48%
    04:00 +26°C° 0 mm 1 mps 681 mmHg 47%
    05:00 +26°C° 0 mm 1 mps 681 mmHg 46%
    06:00 +27°C° 0 mm 1 mps 681 mmHg 46%
    07:00 +29°C° 0 mm 1 mps 682 mmHg 43%
    08:00 +31°C° 0 mm 2 mps 682 mmHg 40%
    09:00 +32°C° 0 mm 2 mps 682 mmHg 37%
    10:00 +35°C° 0 mm 3 mps 682 mmHg 34%
    11:00 +36°C° 0 mm 3 mps 682 mmHg 31%
    12:00 +37°C° 0 mm 4 mps 682 mmHg 28%
    13:00 +37°C° 0 mm 4 mps 681 mmHg 28%
    14:00 +38°C° 0 mm 4 mps 681 mmHg 28%
    15:00 +38°C° 0 mm 4 mps 680 mmHg 28%
    16:00 +37°C° 0 mm 4 mps 680 mmHg 31%
    17:00 +35°C° 0 mm 4 mps 680 mmHg 34%
    18:00 +34°C° 0 mm 3 mps 679 mmHg 38%
    19:00 +31°C° 0 mm 3 mps 679 mmHg 42%
    20:00 +29°C° 0 mm 2 mps 679 mmHg 47%
    21:00 +26°C° 0 mm 1 mps 679 mmHg 52%
    22:00 +26°C° 0 mm 1 mps 679 mmHg 53%
    23:00 +25°C° 0 mm 1 mps 679 mmHg 54%
    Show more